星链-34778 (STARLINK-34778)

导读

STARLINK-34778是美国于2025年7月30日发射的星链计划卫星,星链是SpaceX打造的大型低轨卫星互联网星座项目,旨在为全球提供高速、低延迟的互联网覆盖服务。该卫星加入星座后,进一步拓展了星链全球网络的覆盖范围,服务更多偏远地区及移动场景用户。

Basic Information
目录编号:
65021
目录名称:
STARLINK-34778
国际标识:
2025-161G
轨道中心:
EARTH
卫星名称:
星链-34778
卫星全名:
星链-34778 (STARLINK-34778)
卫星状态:
在轨 (已飞行318 天)
发射日期:
2025-07-30 UTC
国别 :
美国 (US)
星等 :
--
Orbit Information
数据来源 国际轨道数据 AOE轨道数据
星历时间 2026-06-12T18:41:55+0800
1天前
查看轨道信息
2026-06-09T07:00:00+0800
4天前
查看轨道信息
半长轴 6853.362km 6853.299km
偏心率 0.0001442 0.0001653
轨道倾角 53.158° 53.159°
近地点辐角 82.466° 72.631°
升交点赤经 214.341° 230.543°
平近点角 277.650° 145.589°
近地点 474.236km 474.029km
远地点 476.214km 476.295km
周期 94.106分钟 94.104分钟
每日圈数 15.301968 15.302178
Detailed Information
固有亮度:
5
最大亮度:
2.5
卫星平台:
Starlink V1.0
覆盖范围:
全球
运营商:
太空探索技术公司
运营商所在国:
美国
制造商(研发单位):
太空探索技术公司
制造商所在国:
美国
使用方式:
暂无
Satellite Introduction
Starlink 计划是 SpaceX 推出的全球卫星互联网项目,通过发射低轨道卫星,为全球尤其是偏远地区提供高速、低延迟的互联网服务。自 2019 年起,Starlink 已部署数千颗卫星,旨在缩小全球数字鸿沟,推动互联网普及。该项目还为军事、航空等行业提供通信支持,带来广泛经济效益。
2D Orbit Map
3D Orbit Map
Orbit Altitude Analysis Chart
Orbit Inclination Analysis Chart
Orbit Comprehensive Analysis Chart
View Comprehensive Chart